FLOCK 3P-77 (42025 NORAD) Tracking and Keplerian Element Data

This shows tracking and keplerian element data for the satellite.

Feedback or suggestion? Click here.




ElementValue
Catalog42025
NameFLOCK 3P-77
Epoch Orbit5536
Epoch Day46.14996513
Epoch Year2018
RAAN111.8123
Inclination97.4683
Eccentricity0.0009777
Argument of Perigee71.1886
Mean Anonmoly289.0411
Mean Motion15.23916368
Decay Rate3.16E-05
L11 42025U 17008CF 18046.14996513 .00003160 00000-0 13364-3 0 9996
L22 42025 97.4683 111.8123 0009777 71.1886 289.0411 15.23916368 55368

Live tracking and technical data element details for FLOCK 3P-77 (NORAD 42025). FLOCK 3P-77 can be tracked NOW for your location showing map with azimuth and elevation plus other details from your city location.

Track the satellite on the map from your city or location and see movement details for azimuth, elevation, latitude, longitude, range, height, and movement on the map or in text.







IsCatalogInMostPopularTable: catalog: 42025, numindb: 156
Update: records affected: 1



GetName: 42025 FLOCK 3P-77

Hit Count: updated at: Mon, 12 Nov 2018 17:31:40 GMT